This is the latest recevied weather packets stored in our database for station/object KF4UQS-14. If no packets are shown the sender has not sent any weather packets the latest 10 day(s).
| Time | Temp. | Humidity | Pressure | Rain* | Wind** | Luminosity | Snow |
|---|---|---|---|---|---|---|---|
| 1777744192 | 11.67° C | 87% | 1013.3 hPa | 0 mm | - | 279 W/m² | - |
| 1777743889 | 11.67° C | 87% | 1013.5 hPa | 1.78 mm | - | 275 W/m² | - |
| 1777743586 | 11.67° C | 89% | 1013.5 hPa | 1.78 mm | - | 207 W/m² | - |
| 1777743283 | 11.67° C | 89% | 1013.6 hPa | 1.27 mm | - | 161 W/m² | - |
| 1777742981 | 11.67° C | 89% | 1013.5 hPa | 1.27 mm | - | 212 W/m² | - |
| 1777742678 | 11.67° C | 90% | 1013.3 hPa | 1.78 mm | - | 172 W/m² | - |
| 1777742374 | 11.67° C | 91% | 1013.2 hPa | 1.78 mm | - | 109 W/m² | - |
| 1777742070 | 12.22° C | 92% | 1013.3 hPa | 1.27 mm | - | 93 W/m² | - |
| 1777741768 | 12.22° C | 91% | 1013.2 hPa | 1.27 mm | - | 106 W/m² | - |
| 1777741464 | 12.22° C | 91% | 1013.1 hPa | 0 mm | - | 93 W/m² | - |
| 1777741160 | 12.22° C | 91% | 1013.2 hPa | 0 mm | - | 110 W/m² | - |
| 1777740858 | 12.22° C | 89% | 1013.3 hPa | 1.78 mm | - | 123 W/m² | - |
| 1777740554 | 12.22° C | 87% | 1013.3 hPa | 1.78 mm | - | 124 W/m² | - |
| 1777740251 | 12.22° C | 86% | 1013.3 hPa | 0 mm | - | 92 W/m² | - |
| 1777739947 | 12.22° C | 85% | 1013.2 hPa | 1.78 mm | - | 126 W/m² | - |
| 1777739643 | 12.22° C | 84% | 1013.2 hPa | 1.78 mm | - | 200 W/m² | - |
| 1777739341 | 12.22° C | 83% | 1013.4 hPa | 0 mm | - | 209 W/m² | - |
| 1777739037 | 12.22° C | 82% | 1013.7 hPa | 1.27 mm | - | 186 W/m² | - |
| 1777738735 | 12.22° C | 80% | 1013.6 hPa | 1.27 mm | - | 154 W/m² | - |
| 1777738431 | 12.78° C | 82% | 1013.7 hPa | 0 mm | - | 145 W/m² | - |
| 1777738129 | 12.22° C | 80% | 1013.6 hPa | 0 mm | - | 207 W/m² | - |
| 1777737827 | 12.78° C | 83% | 1013.8 hPa | 0 mm | - | 203 W/m² | - |
| 1777737526 | 12.78° C | 83% | 1013.8 hPa | 1.78 mm | - | 210 W/m² | - |
| 1777737223 | 12.78° C | 82% | 1013.8 hPa | 1.78 mm | - | 193 W/m² | - |
| 1777736919 | 12.78° C | 87% | 1013.8 hPa | 1.78 mm | - | 147 W/m² | - |
* Rain latest hour (hover to see other rain measurements)
** Current wind speed in m/s (hover to see current wind gust speed)